Location: Bad Dürkheim
(49.4618°N, 8.1724°E)
Time: 21:26:07
(UTC+00:00)

Cosmos 1437 Rocket - Pass Details

Date: 14 June 2025
Orbit: 456 x 498 km, 81.2° (Epoch: 16 July)

Event Time Altitude Azimuth Distance (km) Brightness Sun altitude
Exits shadow 20:21:20 - 143° (SE) 1,761 4.7 -6.3°
Reaches altitude 10° 20:21:47 10° 138° (SE) 1,614 4.5 -6.3°
Maximum altitude 20:24:24 20° 90° (E) 1,147 4.1 -6.6°
Drops below altitude 10° 20:27:03 10° 42° (NE) 1,641 5.3 -6.9°
Sets 20:29:33 0° 25° (NNE) 2,534 6.6 -7.2°
